Time,TemperatureF,DewpointF,PressureIn,WindDirection,WindDirectionDegrees,WindSpeedMPH,WindSpeedGustMPH,Humidity,HourlyPrecipIn,Conditions,Clouds,dailyrainin,SolarRadiationWatts/m^2,SoftwareType,DateUTC
2013-10-27 00:01:00,28.7,25.0,30.01,SSW,213,4.0,4.0,86,0.00,,,0.00,0,Wunderground v.1.15,2013-10-27 05:01:00,
2013-10-27 00:07:00,28.8,25.1,30.01,SSW,213,3.0,4.0,86,0.00,,,0.00,0,Wunderground v.1.15,2013-10-27 05:07:00,
2013-10-27 00:13:00,29.0,25.3,30.00,SSW,213,2.0,3.0,86,0.00,,,0.00,0,Wunderground v.1.15,2013-10-27 05:13:00,
2013-10-27 00:18:00,29.1,25.4,30.00,SSW,213,2.0,3.0,86,0.00,,,0.00,0,Wunderground v.1.15,2013-10-27 05:18:00,
2013-10-27 00:23:00,29.2,25.5,30.00,SSW,209,4.0,4.0,86,0.00,,,0.00,0,Wunderground v.1.15,2013-10-27 05:23:00,
2013-10-27 00:29:00,29.5,25.8,30.00,SSW,209,3.0,4.0,86,0.00,,,0.00,0,Wunderground v.1.15,2013-10-27 05:29:00,
2013-10-27 00:35:00,30.0,26.0,30.00,SSW,205,5.0,5.0,85,0.00,,,0.00,0,Wunderground v.1.15,2013-10-27 05:35:00,
2013-10-27 00:40:00,30.1,26.1,30.00,SSW,206,4.0,4.0,85,0.00,,,0.00,0,Wunderground v.1.15,2013-10-27 05:40:00,
2013-10-27 00:45:00,30.4,26.1,30.00,SSW,206,2.0,4.0,84,0.00,,,0.00,0,Wunderground v.1.15,2013-10-27 05:45:00,
2013-10-27 00:51:00,30.3,26.0,29.99,SSW,206,2.0,3.0,84,0.00,,,0.00,0,Wunderground v.1.15,2013-10-27 05:51:00,
2013-10-27 00:56:00,30.1,25.8,29.99,SSW,207,2.0,3.0,84,0.00,,,0.00,0,Wunderground v.1.15,2013-10-27 05:56:00,
2013-10-27 01:01:00,30.1,25.8,29.99,SSW,211,5.0,5.0,84,0.00,,,0.00,0,Wunderground v.1.15,2013-10-27 06:01:00,
2013-10-27 01:06:00,30.4,26.1,29.99,SSW,208,4.0,7.0,84,0.00,,,0.00,0,Wunderground v.1.15,2013-10-27 06:06:00,
2013-10-27 01:12:00,30.7,26.4,29.99,SSW,209,3.0,5.0,84,0.00,,,0.00,0,Wunderground v.1.15,2013-10-27 06:12:00,
2013-10-27 01:17:00,30.7,26.1,29.98,SSW,209,4.0,5.0,83,0.00,,,0.00,0,Wunderground v.1.15,2013-10-27 06:17:00,
2013-10-27 01:22:00,31.0,26.4,29.98,SSW,211,3.0,4.0,83,0.00,,,0.00,0,Wunderground v.1.15,2013-10-27 06:22:00,
2013-10-27 01:27:00,31.1,26.5,29.98,SSW,203,5.0,5.0,83,0.00,,,0.00,0,Wunderground v.1.15,2013-10-27 06:27:00,
2013-10-27 01:32:00,31.1,26.5,29.98,SSW,203,4.0,5.0,83,0.00,,,0.00,0,Wunderground v.1.15,2013-10-27 06:32:00,
2013-10-27 01:38:00,31.1,26.5,29.97,SSW,203,3.0,5.0,83,0.00,,,0.00,0,Wunderground v.1.15,2013-10-27 06:38:00,
2013-10-27 01:43:00,31.1,26.5,29.97,SSW,208,3.0,4.0,83,0.00,,,0.00,0,Wunderground v.1.15,2013-10-27 06:43:00,
2013-10-27 01:48:00,31.3,26.7,29.97,SSW,208,3.0,5.0,83,0.00,,,0.00,0,Wunderground v.1.15,2013-10-27 06:48:00,
2013-10-27 01:53:00,31.3,26.7,29.97,SSW,207,4.0,5.0,83,0.00,,,0.00,0,Wunderground v.1.15,2013-10-27 06:53:00,
2013-10-27 01:59:00,31.0,26.4,29.96,SSW,205,4.0,5.0,83,0.00,,,0.00,0,Wunderground v.1.15,2013-10-27 06:59:00,
2013-10-27 02:04:00,31.3,27.0,29.96,SSW,195,4.0,7.0,84,0.00,,,0.00,0,Wunderground v.1.15,2013-10-27 07:04:00,
2013-10-27 02:09:00,31.9,27.6,29.95,SSW,205,4.0,7.0,84,0.00,,,0.00,0,Wunderground v.1.15,2013-10-27 07:09:00,
2013-10-27 02:14:00,32.3,27.7,29.95,SSW,205,3.0,6.0,83,0.00,,,0.00,0,Wunderground v.1.15,2013-10-27 07:14:00,
2013-10-27 02:19:00,32.2,27.3,29.95,SSW,192,4.0,6.0,82,0.00,,,0.00,0,Wunderground v.1.15,2013-10-27 07:19:00,
2013-10-27 02:24:00,32.2,27.3,29.95,SSW,193,4.0,5.0,82,0.00,,,0.00,0,Wunderground v.1.15,2013-10-27 07:24:00,
2013-10-27 02:29:00,32.3,27.4,29.94,SSW,197,4.0,5.0,82,0.00,,,0.00,0,Wunderground v.1.15,2013-10-27 07:29:00,
2013-10-27 02:34:00,32.3,27.4,29.94,SSW,195,4.0,7.0,82,0.00,,,0.00,0,Wunderground v.1.15,2013-10-27 07:34:00,
2013-10-27 02:39:00,32.3,27.1,29.94,SSW,197,4.0,7.0,81,0.00,,,0.00,0,Wunderground v.1.15,2013-10-27 07:39:00,
2013-10-27 02:44:00,32.3,27.1,29.94,SSW,204,5.0,7.0,81,0.00,,,0.00,0,Wunderground v.1.15,2013-10-27 07:44:00,
2013-10-27 02:49:00,32.4,27.2,29.93,SSW,200,6.0,7.0,81,0.00,,,0.00,0,Wunderground v.1.15,2013-10-27 07:49:00,
2013-10-27 02:54:00,32.6,27.4,29.93,SSW,203,5.0,7.0,81,0.00,,,0.00,0,Wunderground v.1.15,2013-10-27 07:54:00,
2013-10-27 02:59:00,32.7,27.2,29.93,SSW,205,5.0,7.0,80,0.00,,,0.00,0,Wunderground v.1.15,2013-10-27 07:59:00,
2013-10-27 03:04:00,32.9,27.4,29.93,SSW,205,5.0,6.0,80,0.00,,,0.00,0,Wunderground v.1.15,2013-10-27 08:04:00,
2013-10-27 03:09:00,32.6,26.8,29.93,SSW,205,5.0,6.0,79,0.00,,,0.00,0,Wunderground v.1.15,2013-10-27 08:09:00,
2013-10-27 03:14:00,32.6,27.1,29.93,SSW,205,3.0,6.0,80,0.00,,,0.00,0,Wunderground v.1.15,2013-10-27 08:14:00,
2013-10-27 03:19:00,33.1,27.3,29.92,SSW,204,6.0,7.0,79,0.00,,,0.00,0,Wunderground v.1.15,2013-10-27 08:19:00,
2013-10-27 03:24:00,33.6,27.5,29.92,SSW,204,5.0,7.0,78,0.00,,,0.00,0,Wunderground v.1.15,2013-10-27 08:24:00,
2013-10-27 03:29:00,33.8,27.4,29.92,SSW,204,5.0,7.0,77,0.00,,,0.00,0,Wunderground v.1.15,2013-10-27 08:29:00,
2013-10-27 03:34:00,33.4,27.3,29.92,SSW,204,5.0,6.0,78,0.00,,,0.00,0,Wunderground v.1.15,2013-10-27 08:34:00,
2013-10-27 03:39:00,33.5,27.4,29.91,SSW,204,5.0,7.0,78,0.00,,,0.00,0,Wunderground v.1.15,2013-10-27 08:39:00,
2013-10-27 03:44:00,34.1,27.6,29.91,SSW,206,7.0,7.0,77,0.00,,,0.00,0,Wunderground v.1.15,2013-10-27 08:44:00,
2013-10-27 03:49:00,34.6,28.1,29.91,SSW,209,7.0,9.0,77,0.00,,,0.00,0,Wunderground v.1.15,2013-10-27 08:49:00,
2013-10-27 03:54:00,34.9,27.8,29.91,SSW,205,7.0,8.0,75,0.00,,,0.00,0,Wunderground v.1.15,2013-10-27 08:54:00,
2013-10-27 03:59:00,34.9,27.8,29.90,SSW,202,5.0,8.0,75,0.00,,,0.00,0,Wunderground v.1.15,2013-10-27 08:59:00,
2013-10-27 04:04:00,35.0,27.9,29.90,SSW,202,5.0,7.0,75,0.00,,,0.00,0,Wunderground v.1.15,2013-10-27 09:04:00,
2013-10-27 04:09:00,34.8,27.7,29.90,SSW,201,4.0,7.0,75,0.00,,,0.00,0,Wunderground v.1.15,2013-10-27 09:09:00,
2013-10-27 04:14:00,35.0,28.2,29.90,SSW,210,6.0,8.0,76,0.00,,,0.00,0,Wunderground v.1.15,2013-10-27 09:14:00,
2013-10-27 04:19:00,35.3,28.2,29.89,SSW,207,6.0,9.0,75,0.00,,,0.00,0,Wunderground v.1.15,2013-10-27 09:19:00,
2013-10-27 04:24:00,35.7,28.2,29.89,SSW,209,5.0,8.0,74,0.00,,,0.00,0,Wunderground v.1.15,2013-10-27 09:24:00,
2013-10-27 04:29:00,36.4,28.6,29.88,SSW,203,7.0,8.0,73,0.00,,,0.00,0,Wunderground v.1.15,2013-10-27 09:29:00,
2013-10-27 04:34:00,37.1,28.9,29.88,SSW,209,7.0,10.0,72,0.00,,,0.00,0,Wunderground v.1.15,2013-10-27 09:34:00,
2013-10-27 04:39:00,37.0,28.8,29.88,SSW,200,6.0,10.0,72,0.00,,,0.00,0,Wunderground v.1.15,2013-10-27 09:39:00,
2013-10-27 04:44:00,37.0,28.8,29.88,SSW,206,5.0,8.0,72,0.00,,,0.00,0,Wunderground v.1.15,2013-10-27 09:44:00,
2013-10-27 04:49:00,37.0,29.1,29.87,SSW,209,5.0,8.0,73,0.00,,,0.00,0,Wunderground v.1.15,2013-10-27 09:49:00,
2013-10-27 04:54:00,37.0,28.8,29.87,SSW,205,6.0,8.0,72,0.00,,,0.00,0,Wunderground v.1.15,2013-10-27 09:54:00,
2013-10-27 04:59:00,37.0,29.1,29.87,SSW,202,7.0,12.0,73,0.00,,,0.00,0,Wunderground v.1.15,2013-10-27 09:59:00,
2013-10-27 05:04:00,37.2,29.3,29.87,SW,215,7.0,10.0,73,0.00,,,0.00,0,Wunderground v.1.15,2013-10-27 10:04:00,
2013-10-27 05:09:00,37.6,29.4,29.86,SW,214,8.0,12.0,72,0.00,,,0.00,0,Wunderground v.1.15,2013-10-27 10:09:00,
2013-10-27 05:14:00,38.1,29.9,29.86,SSW,202,7.0,10.0,72,0.00,,,0.00,0,Wunderground v.1.15,2013-10-27 10:14:00,
2013-10-27 05:19:00,38.3,29.7,29.86,SSW,207,7.0,11.0,71,0.00,,,0.00,0,Wunderground v.1.15,2013-10-27 10:19:00,
2013-10-27 05:24:00,38.3,29.7,29.86,SSW,210,6.0,12.0,71,0.00,,,0.00,0,Wunderground v.1.15,2013-10-27 10:24:00,
2013-10-27 05:29:00,38.1,29.5,29.86,SSW,207,8.0,12.0,71,0.00,,,0.00,0,Wunderground v.1.15,2013-10-27 10:29:00,
2013-10-27 05:34:00,37.8,29.2,29.86,SSW,202,5.0,10.0,71,0.00,,,0.00,0,Wunderground v.1.15,2013-10-27 10:34:00,
2013-10-27 05:39:00,37.7,29.5,29.85,SSW,196,7.0,11.0,72,0.00,,,0.00,0,Wunderground v.1.15,2013-10-27 10:39:00,
2013-10-27 05:44:00,37.3,29.4,29.85,SSW,195,9.0,10.0,73,0.00,,,0.00,0,Wunderground v.1.15,2013-10-27 10:44:00,
2013-10-27 05:49:00,37.3,29.4,29.85,SSW,202,5.0,10.0,73,0.00,,,0.00,0,Wunderground v.1.15,2013-10-27 10:49:00,
2013-10-27 05:54:00,37.7,30.2,29.85,SSW,200,7.0,11.0,74,0.00,,,0.00,0,Wunderground v.1.15,2013-10-27 10:54:00,
2013-10-27 05:59:00,37.6,30.1,29.85,SSW,201,7.0,11.0,74,0.00,,,0.00,0,Wunderground v.1.15,2013-10-27 10:59:00,
2013-10-27 06:04:00,37.9,30.4,29.84,SSW,208,5.0,9.0,74,0.00,,,0.00,0,Wunderground v.1.15,2013-10-27 11:04:00,
2013-10-27 06:09:00,38.2,30.3,29.84,SSW,205,7.0,9.0,73,0.00,,,0.00,0,Wunderground v.1.15,2013-10-27 11:09:00,
2013-10-27 06:14:00,38.2,30.0,29.84,SSW,209,7.0,9.0,72,0.00,,,0.00,0,Wunderground v.1.15,2013-10-27 11:14:00,
2013-10-27 06:19:00,38.1,29.9,29.83,SSW,209,6.0,9.0,72,0.00,,,0.00,0,Wunderground v.1.15,2013-10-27 11:19:00,
2013-10-27 06:24:00,37.9,30.0,29.83,SSW,213,6.0,10.0,73,0.00,,,0.00,0,Wunderground v.1.15,2013-10-27 11:24:00,
2013-10-27 06:29:00,37.7,30.2,29.83,SSW,205,7.0,10.0,74,0.00,,,0.00,0,Wunderground v.1.15,2013-10-27 11:29:00,
2013-10-27 06:34:00,37.7,30.2,29.83,SSW,200,6.0,9.0,74,0.00,,,0.00,0,Wunderground v.1.15,2013-10-27 11:34:00,
2013-10-27 06:39:00,37.8,30.3,29.82,SSW,208,6.0,10.0,74,0.00,,,0.00,0,Wunderground v.1.15,2013-10-27 11:39:00,
2013-10-27 06:44:00,37.7,30.2,29.82,SSW,213,6.0,10.0,74,0.00,,,0.00,0,Wunderground v.1.15,2013-10-27 11:44:00,
2013-10-27 06:49:00,37.6,30.4,29.82,SSW,203,6.0,10.0,75,0.00,,,0.00,0,Wunderground v.1.15,2013-10-27 11:49:00,
2013-10-27 06:55:00,37.7,30.5,29.82,SSW,200,8.0,10.0,75,0.00,,,0.00,0,Wunderground v.1.15,2013-10-27 11:55:00,
2013-10-27 07:00:00,37.7,30.5,29.81,SSW,207,9.0,11.0,75,0.00,,,0.00,0,Wunderground v.1.15,2013-10-27 12:00:00,
2013-10-27 07:05:00,38.0,30.8,29.81,SSW,206,7.0,11.0,75,0.00,,,0.00,0,Wunderground v.1.15,2013-10-27 12:05:00,
2013-10-27 07:10:00,38.1,30.9,29.81,SSW,211,10.0,10.0,75,0.00,,,0.00,0,Wunderground v.1.15,2013-10-27 12:10:00,
2013-10-27 07:15:00,38.0,30.8,29.81,SSW,201,5.0,10.0,75,0.00,,,0.00,0,Wunderground v.1.15,2013-10-27 12:15:00,
2013-10-27 07:20:00,37.7,30.8,29.81,SSW,204,6.0,7.0,76,0.00,,,0.00,0,Wunderground v.1.15,2013-10-27 12:20:00,
2013-10-27 07:25:00,37.5,30.6,29.81,SSW,196,5.0,9.0,76,0.00,,,0.00,0,Wunderground v.1.15,2013-10-27 12:25:00,
2013-10-27 07:30:00,37.2,30.7,29.81,SSW,200,6.0,6.0,77,0.00,,,0.00,0,Wunderground v.1.15,2013-10-27 12:30:00,
2013-10-27 07:31:00,37.1,30.6,29.81,SSW,207,5.0,8.0,77,0.00,,,0.00,0,Wunderground v.1.15,2013-10-27 12:31:00,
2013-10-27 07:36:00,37.1,30.6,29.81,SW,219,6.0,8.0,77,0.00,,,0.00,0,Wunderground v.1.15,2013-10-27 12:36:00,
2013-10-27 07:41:00,37.1,30.6,29.80,SSW,205,4.0,6.0,77,0.00,,,0.00,0,Wunderground v.1.15,2013-10-27 12:41:00,
2013-10-27 07:46:00,37.0,30.5,29.80,SW,223,7.0,8.0,77,0.00,,,0.00,0,Wunderground v.1.15,2013-10-27 12:46:00,
2013-10-27 07:51:00,37.1,30.6,29.81,SW,221,4.0,5.0,77,0.00,,,0.00,0,Wunderground v.1.15,2013-10-27 12:51:00,
2013-10-27 07:56:00,36.9,30.4,29.81,SW,221,3.0,6.0,77,0.00,,,0.00,0,Wunderground v.1.15,2013-10-27 12:56:00,
2013-10-27 08:01:00,36.4,30.2,29.80,SW,221,3.0,4.0,78,0.00,,,0.00,5,Wunderground v.1.15,2013-10-27 13:01:00,
2013-10-27 08:06:00,35.6,29.4,29.80,SSW,211,5.0,7.0,78,0.00,,,0.00,7,Wunderground v.1.15,2013-10-27 13:06:00,
2013-10-27 08:11:00,35.2,29.6,29.80,SSW,209,2.0,6.0,80,0.00,,,0.00,11,Wunderground v.1.15,2013-10-27 13:11:00,
2013-10-27 08:16:00,35.5,29.9,29.80,SSW,203,7.0,7.0,80,0.00,,,0.00,12,Wunderground v.1.15,2013-10-27 13:16:00,
2013-10-27 08:21:00,35.7,30.4,29.80,SSW,198,7.0,8.0,81,0.00,,,0.00,14,Wunderground v.1.15,2013-10-27 13:21:00,
2013-10-27 08:26:00,36.1,30.8,29.80,SSW,202,5.0,8.0,81,0.00,,,0.00,21,Wunderground v.1.15,2013-10-27 13:26:00,
2013-10-27 08:31:00,36.6,31.3,29.80,SSW,213,7.0,7.0,81,0.00,,,0.00,28,Wunderground v.1.15,2013-10-27 13:31:00,
2013-10-27 08:36:00,36.9,31.3,29.80,SW,219,5.0,7.0,80,0.00,,,0.00,39,Wunderground v.1.15,2013-10-27 13:36:00,
2013-10-27 08:41:00,37.0,31.4,29.80,SW,219,4.0,4.0,80,0.00,,,0.00,49,Wunderground v.1.15,2013-10-27 13:41:00,
2013-10-27 08:46:00,37.3,31.7,29.80,SW,219,3.0,5.0,80,0.00,,,0.00,63,Wunderground v.1.15,2013-10-27 13:46:00,
2013-10-27 08:51:00,37.7,32.1,29.80,SW,219,5.0,6.0,80,0.00,,,0.00,79,Wunderground v.1.15,2013-10-27 13:51:00,
2013-10-27 08:56:00,38.1,32.5,29.80,SW,218,6.0,7.0,80,0.00,,,0.00,95,Wunderground v.1.15,2013-10-27 13:56:00,
2013-10-27 09:01:00,38.7,33.1,29.80,SW,222,4.0,6.0,80,0.00,,,0.00,113,Wunderground v.1.15,2013-10-27 14:01:00,
2013-10-27 09:06:00,39.5,33.5,29.80,SW,229,6.0,7.0,79,0.00,,,0.00,132,Wunderground v.1.15,2013-10-27 14:06:00,
2013-10-27 09:11:00,40.2,33.9,29.80,SW,223,6.0,8.0,78,0.00,,,0.00,146,Wunderground v.1.15,2013-10-27 14:11:00,
2013-10-27 09:16:00,41.0,34.3,29.80,SW,216,6.0,10.0,77,0.00,,,0.00,162,Wunderground v.1.15,2013-10-27 14:16:00,
2013-10-27 09:21:00,41.8,34.8,29.80,SW,214,4.0,9.0,76,0.00,,,0.00,185,Wunderground v.1.15,2013-10-27 14:21:00,
2013-10-27 09:26:00,42.4,35.0,29.80,SSW,213,9.0,10.0,75,0.00,,,0.00,204,Wunderground v.1.15,2013-10-27 14:26:00,
2013-10-27 09:31:00,43.1,35.4,29.80,SW,219,5.0,9.0,74,0.00,,,0.00,225,Wunderground v.1.15,2013-10-27 14:31:00,
2013-10-27 09:36:00,43.7,36.0,29.80,SW,215,6.0,9.0,74,0.00,,,0.00,246,Wunderground v.1.15,2013-10-27 14:36:00,
2013-10-27 09:41:00,44.6,36.5,29.80,SSW,211,5.0,7.0,73,0.00,,,0.00,262,Wunderground v.1.15,2013-10-27 14:41:00,
2013-10-27 09:46:00,45.4,36.9,29.80,SW,217,5.0,8.0,72,0.00,,,0.00,272,Wunderground v.1.15,2013-10-27 14:46:00,
2013-10-27 09:51:00,46.2,37.0,29.80,SSW,213,7.0,8.0,70,0.00,,,0.00,288,Wunderground v.1.15,2013-10-27 14:51:00,
2013-10-27 09:56:00,47.0,37.4,29.80,SSW,206,4.0,9.0,69,0.00,,,0.00,302,Wunderground v.1.15,2013-10-27 14:56:00,
2013-10-27 10:01:00,47.8,37.7,29.80,SSW,212,7.0,7.0,68,0.00,,,0.00,315,Wunderground v.1.15,2013-10-27 15:01:00,
2013-10-27 10:06:00,48.7,38.6,29.80,WSW,249,3.0,9.0,68,0.00,,,0.00,329,Wunderground v.1.15,2013-10-27 15:06:00,
2013-10-27 10:11:00,49.5,38.6,29.80,SW,223,4.0,7.0,66,0.00,,,0.00,343,Wunderground v.1.15,2013-10-27 15:11:00,
2013-10-27 10:16:00,50.2,38.9,29.79,SW,229,5.0,8.0,65,0.00,,,0.00,353,Wunderground v.1.15,2013-10-27 15:16:00,
2013-10-27 10:21:00,50.9,39.5,29.79,SW,214,7.0,9.0,65,0.00,,,0.00,367,Wunderground v.1.15,2013-10-27 15:21:00,
2013-10-27 10:26:00,51.5,38.9,29.79,SW,221,8.0,9.0,62,0.00,,,0.00,380,Wunderground v.1.15,2013-10-27 15:26:00,
2013-10-27 10:31:00,51.9,38.9,29.79,SW,216,4.0,9.0,61,0.00,,,0.00,392,Wunderground v.1.15,2013-10-27 15:31:00,
2013-10-27 10:36:00,52.7,39.6,29.79,SW,227,7.0,10.0,61,0.00,,,0.00,404,Wunderground v.1.15,2013-10-27 15:36:00,
2013-10-27 10:41:00,53.3,39.8,29.79,SW,222,5.0,6.0,60,0.00,,,0.00,417,Wunderground v.1.15,2013-10-27 15:41:00,
2013-10-27 10:46:00,53.9,39.9,29.79,SW,215,4.0,11.0,59,0.00,,,0.00,429,Wunderground v.1.15,2013-10-27 15:46:00,
2013-10-27 10:51:00,54.4,40.4,29.79,SSW,213,5.0,9.0,59,0.00,,,0.00,438,Wunderground v.1.15,2013-10-27 15:51:00,
2013-10-27 10:56:00,54.8,40.7,29.79,SW,224,3.0,10.0,59,0.00,,,0.00,450,Wunderground v.1.15,2013-10-27 15:56:00,
2013-10-27 11:01:00,55.5,40.5,29.78,SSW,207,6.0,9.0,57,0.00,,,0.00,461,Wunderground v.1.15,2013-10-27 16:01:00,
2013-10-27 11:06:00,56.2,41.2,29.78,SW,221,5.0,9.0,57,0.00,,,0.00,471,Wunderground v.1.15,2013-10-27 16:06:00,
2013-10-27 11:11:00,56.6,40.6,29.78,SW,221,7.0,8.0,55,0.00,,,0.00,482,Wunderground v.1.15,2013-10-27 16:11:00,
2013-10-27 11:16:00,57.3,41.3,29.78,SW,221,3.0,10.0,55,0.00,,,0.00,490,Wunderground v.1.15,2013-10-27 16:16:00,
2013-10-27 11:21:00,58.2,41.6,29.77,SW,222,5.0,6.0,54,0.00,,,0.00,503,Wunderground v.1.15,2013-10-27 16:21:00,
2013-10-27 11:26:00,58.6,41.5,29.77,SW,228,2.0,9.0,53,0.00,,,0.00,512,Wunderground v.1.15,2013-10-27 16:26:00,
2013-10-27 11:31:00,59.0,41.4,29.77,WSW,238,4.0,4.0,52,0.00,,,0.00,519,Wunderground v.1.15,2013-10-27 16:31:00,
2013-10-27 11:36:00,59.7,41.5,29.77,WSW,237,3.0,7.0,51,0.00,,,0.00,527,Wunderground v.1.15,2013-10-27 16:36:00,
2013-10-27 11:41:00,60.3,41.6,29.77,WSW,238,6.0,7.0,50,0.00,,,0.00,538,Wunderground v.1.15,2013-10-27 16:41:00,
2013-10-27 11:46:00,60.8,41.5,29.77,WSW,241,2.0,7.0,49,0.00,,,0.00,543,Wunderground v.1.15,2013-10-27 16:46:00,
2013-10-27 11:51:00,61.5,41.6,29.77,WSW,242,3.0,4.0,48,0.00,,,0.00,554,Wunderground v.1.15,2013-10-27 16:51:00,
2013-10-27 11:56:00,62.1,41.6,29.77,WSW,244,2.0,6.0,47,0.00,,,0.00,557,Wunderground v.1.15,2013-10-27 16:56:00,
2013-10-27 12:01:00,62.4,41.9,29.77,WSW,244,2.0,4.0,47,0.00,,,0.00,566,Wunderground v.1.15,2013-10-27 17:01:00,
2013-10-27 12:06:00,62.6,42.1,29.77,SW,234,3.0,5.0,47,0.00,,,0.00,573,Wunderground v.1.15,2013-10-27 17:06:00,
2013-10-27 12:11:00,63.0,41.3,29.77,SW,236,4.0,4.0,45,0.00,,,0.00,578,Wunderground v.1.15,2013-10-27 17:11:00,
2013-10-27 12:16:00,63.2,40.9,29.77,SW,236,0.0,4.0,44,0.00,,,0.00,585,Wunderground v.1.15,2013-10-27 17:16:00,
2013-10-27 12:21:00,63.8,42.0,29.77,SW,236,2.0,4.0,45,0.00,,,0.00,591,Wunderground v.1.15,2013-10-27 17:21:00,
2013-10-27 12:26:00,64.1,41.1,29.77,SW,236,0.0,4.0,43,0.00,,,0.00,596,Wunderground v.1.15,2013-10-27 17:26:00,
2013-10-27 12:31:00,64.3,41.3,29.76,SW,236,2.0,4.0,43,0.00,,,0.00,599,Wunderground v.1.15,2013-10-27 17:31:00,
2013-10-27 12:36:00,64.8,41.2,29.76,SW,236,0.0,4.0,42,0.00,,,0.00,603,Wunderground v.1.15,2013-10-27 17:36:00,
2013-10-27 12:41:00,65.5,42.4,29.76,SW,236,3.0,4.0,43,0.00,,,0.00,606,Wunderground v.1.15,2013-10-27 17:41:00,
2013-10-27 12:46:00,65.6,42.5,29.76,SW,236,3.0,4.0,43,0.00,,,0.00,610,Wunderground v.1.15,2013-10-27 17:46:00,
2013-10-27 12:51:00,65.8,42.1,29.76,SW,236,0.0,2.0,42,0.00,,,0.00,615,Wunderground v.1.15,2013-10-27 17:51:00,
2013-10-27 12:56:00,66.0,42.9,29.76,SW,236,1.0,3.0,43,0.00,,,0.00,617,Wunderground v.1.15,2013-10-27 17:56:00,
2013-10-27 13:01:00,66.3,42.5,29.76,SW,236,0.0,2.0,42,0.00,,,0.00,617,Wunderground v.1.15,2013-10-27 18:01:00,
2013-10-27 13:06:00,66.5,43.3,29.75,SW,236,0.0,3.0,43,0.00,,,0.00,619,Wunderground v.1.15,2013-10-27 18:06:00,
2013-10-27 13:11:00,66.7,41.6,29.75,WSW,245,2.0,2.0,40,0.00,,,0.00,619,Wunderground v.1.15,2013-10-27 18:11:00,
2013-10-27 13:16:00,66.8,41.0,29.75,WSW,245,0.0,4.0,39,0.00,,,0.00,619,Wunderground v.1.15,2013-10-27 18:16:00,
2013-10-27 13:21:00,67.4,41.6,29.74,WSW,245,2.0,5.0,39,0.00,,,0.00,621,Wunderground v.1.15,2013-10-27 18:21:00,
2013-10-27 13:26:00,67.3,40.8,29.74,WSW,254,0.0,5.0,38,0.00,,,0.00,619,Wunderground v.1.15,2013-10-27 18:26:00,
2013-10-27 13:31:00,67.6,42.4,29.74,WSW,255,1.0,3.0,40,0.00,,,0.00,615,Wunderground v.1.15,2013-10-27 18:31:00,
2013-10-27 13:36:00,67.9,41.3,29.74,West,273,1.0,5.0,38,0.00,,,0.00,615,Wunderground v.1.15,2013-10-27 18:36:00,
2013-10-27 13:41:00,68.0,40.7,29.73,West,273,0.0,2.0,37,0.00,,,0.00,617,Wunderground v.1.15,2013-10-27 18:41:00,
2013-10-27 13:46:00,68.0,41.4,29.73,West,273,3.0,4.0,38,0.00,,,0.00,615,Wunderground v.1.15,2013-10-27 18:46:00,
2013-10-27 13:51:00,67.6,41.1,29.73,West,273,0.0,2.0,38,0.00,,,0.00,612,Wunderground v.1.15,2013-10-27 18:51:00,
2013-10-27 13:56:00,68.2,42.3,29.73,West,273,3.0,5.0,39,0.00,,,0.00,610,Wunderground v.1.15,2013-10-27 18:56:00,
2013-10-27 14:02:00,67.9,41.3,29.73,NW,325,1.0,4.0,38,0.00,,,0.00,606,Wunderground v.1.15,2013-10-27 19:02:00,
2013-10-27 14:07:00,68.3,41.7,29.72,NW,325,2.0,4.0,38,0.00,,,0.00,605,Wunderground v.1.15,2013-10-27 19:07:00,
2013-10-27 14:12:00,69.2,40.4,29.72,NW,325,0.0,3.0,35,0.00,,,0.00,599,Wunderground v.1.15,2013-10-27 19:12:00,
2013-10-27 14:17:00,69.9,40.2,29.72,NW,325,0.0,3.0,34,0.00,,,0.00,596,Wunderground v.1.15,2013-10-27 19:17:00,
2013-10-27 14:22:00,69.9,40.2,29.72,NW,325,1.0,2.0,34,0.00,,,0.00,592,Wunderground v.1.15,2013-10-27 19:22:00,
2013-10-27 14:27:00,69.1,40.3,29.72,NNW,342,3.0,5.0,35,0.00,,,0.00,587,Wunderground v.1.15,2013-10-27 19:27:00,
2013-10-27 14:32:00,69.2,40.4,29.72,NNW,345,0.0,4.0,35,0.00,,,0.00,582,Wunderground v.1.15,2013-10-27 19:32:00,
2013-10-27 14:37:00,69.2,40.4,29.71,NNW,346,3.0,4.0,35,0.00,,,0.00,577,Wunderground v.1.15,2013-10-27 19:37:00,
2013-10-27 14:42:00,69.2,41.8,29.71,North,350,0.0,2.0,37,0.00,,,0.00,570,Wunderground v.1.15,2013-10-27 19:42:00,
2013-10-27 14:47:00,70.1,42.6,29.71,North,351,3.0,5.0,37,0.00,,,0.00,563,Wunderground v.1.15,2013-10-27 19:47:00,
2013-10-27 14:52:00,70.4,39.9,29.71,North,5,1.0,2.0,33,0.00,,,0.00,555,Wunderground v.1.15,2013-10-27 19:52:00,
2013-10-27 14:57:00,71.4,41.6,29.71,North,5,3.0,4.0,34,0.00,,,0.00,547,Wunderground v.1.15,2013-10-27 19:57:00,
2013-10-27 15:02:00,71.2,39.0,29.71,North,5,0.0,2.0,31,0.00,,,0.00,538,Wunderground v.1.15,2013-10-27 20:02:00,
2013-10-27 15:07:00,71.4,38.3,29.70,North,5,0.0,5.0,30,0.00,,,0.00,531,Wunderground v.1.15,2013-10-27 20:07:00,
2013-10-27 15:12:00,71.2,42.1,29.70,North,5,5.0,5.0,35,0.00,,,0.00,522,Wunderground v.1.15,2013-10-27 20:12:00,
2013-10-27 15:17:00,71.1,40.5,29.70,NNE,21,4.0,8.0,33,0.00,,,0.00,513,Wunderground v.1.15,2013-10-27 20:17:00,
2013-10-27 15:22:00,70.9,39.6,29.70,NNE,21,0.0,3.0,32,0.00,,,0.00,504,Wunderground v.1.15,2013-10-27 20:22:00,
2013-10-27 15:27:00,70.7,40.2,29.70,NNE,24,5.0,6.0,33,0.00,,,0.00,496,Wunderground v.1.15,2013-10-27 20:27:00,
2013-10-27 15:32:00,70.3,39.0,29.70,NNE,30,2.0,6.0,32,0.00,,,0.00,485,Wunderground v.1.15,2013-10-27 20:32:00,
2013-10-27 15:37:00,70.9,39.6,29.70,NNE,30,3.0,6.0,32,0.00,,,0.00,475,Wunderground v.1.15,2013-10-27 20:37:00,
2013-10-27 15:42:00,71.1,39.7,29.70,NNE,30,5.0,6.0,32,0.00,,,0.00,464,Wunderground v.1.15,2013-10-27 20:42:00,
2013-10-27 15:47:00,70.9,39.6,29.70,NNE,30,2.0,8.0,32,0.00,,,0.00,454,Wunderground v.1.15,2013-10-27 20:47:00,
2013-10-27 15:52:00,71.1,39.7,29.70,NNE,30,5.0,5.0,32,0.00,,,0.00,441,Wunderground v.1.15,2013-10-27 20:52:00,
2013-10-27 15:57:00,71.3,39.1,29.70,NNE,30,2.0,6.0,31,0.00,,,0.00,429,Wunderground v.1.15,2013-10-27 20:57:00,
2013-10-27 20:34:00,53.1,39.1,29.80,NNE,29,8.0,8.0,59,0.00,,,0.00,0,Wunderground v.1.15,2013-10-28 01:34:00,
2013-10-27 20:39:00,52.6,39.1,29.80,NNE,23,7.0,12.0,60,0.00,,,0.00,0,Wunderground v.1.15,2013-10-28 01:39:00,
2013-10-27 20:44:00,52.1,39.1,29.80,NNE,25,11.0,11.0,61,0.00,,,0.00,0,Wunderground v.1.15,2013-10-28 01:44:00,
2013-10-27 20:49:00,51.6,39.0,29.80,NNE,22,7.0,11.0,62,0.00,,,0.00,0,Wunderground v.1.15,2013-10-28 01:49:00,
2013-10-27 20:54:00,51.2,39.0,29.80,NNE,22,11.0,11.0,63,0.00,,,0.00,0,Wunderground v.1.15,2013-10-28 01:54:00,
2013-10-27 20:59:00,51.0,38.8,29.80,NNE,23,9.0,12.0,63,0.00,,,0.00,0,Wunderground v.1.15,2013-10-28 01:59:00,
2013-10-27 21:04:00,50.8,39.1,29.81,NNE,28,8.0,12.0,64,0.00,,,0.00,0,Wunderground v.1.15,2013-10-28 02:04:00,
2013-10-27 21:09:00,50.6,38.9,29.81,NNE,30,5.0,13.0,64,0.00,,,0.00,0,Wunderground v.1.15,2013-10-28 02:09:00,
2013-10-27 21:14:00,50.4,38.7,29.81,NNE,26,11.0,13.0,64,0.00,,,0.00,0,Wunderground v.1.15,2013-10-28 02:14:00,
2013-10-27 21:19:00,50.3,38.6,29.81,NNE,27,11.0,14.0,64,0.00,,,0.00,0,Wunderground v.1.15,2013-10-28 02:19:00,
2013-10-27 21:24:00,50.0,38.7,29.82,NNE,33,6.0,13.0,65,0.00,,,0.00,0,Wunderground v.1.15,2013-10-28 02:24:00,
2013-10-27 21:29:00,49.8,38.5,29.82,NNE,27,8.0,13.0,65,0.00,,,0.00,0,Wunderground v.1.15,2013-10-28 02:29:00,
2013-10-27 21:34:00,49.6,38.3,29.82,NNE,28,5.0,10.0,65,0.00,,,0.00,0,Wunderground v.1.15,2013-10-28 02:34:00,
2013-10-27 21:39:00,49.1,38.2,29.83,NNE,29,6.0,10.0,66,0.00,,,0.00,0,Wunderground v.1.15,2013-10-28 02:39:00,
2013-10-27 21:44:00,48.8,37.9,29.83,NNE,22,5.0,8.0,66,0.00,,,0.00,0,Wunderground v.1.15,2013-10-28 02:44:00,
2013-10-27 21:49:00,48.5,38.0,29.83,NNE,24,8.0,8.0,67,0.00,,,0.00,0,Wunderground v.1.15,2013-10-28 02:49:00,
2013-10-27 21:54:00,48.3,37.8,29.83,NNE,32,9.0,12.0,67,0.00,,,0.00,0,Wunderground v.1.15,2013-10-28 02:54:00,
2013-10-27 21:59:00,48.2,38.1,29.84,NNE,27,9.0,12.0,68,0.00,,,0.00,0,Wunderground v.1.15,2013-10-28 02:59:00,
2013-10-27 22:04:00,48.3,38.2,29.84,NNE,22,17.0,18.0,68,0.00,,,0.00,0,Wunderground v.1.15,2013-10-28 03:04:00,
2013-10-27 22:09:00,48.5,38.0,29.84,NNE,24,11.0,18.0,67,0.00,,,0.00,0,Wunderground v.1.15,2013-10-28 03:09:00,
2013-10-27 22:14:00,48.5,38.0,29.85,NNE,31,10.0,13.0,67,0.00,,,0.00,0,Wunderground v.1.15,2013-10-28 03:14:00,
2013-10-27 22:19:00,48.1,37.7,29.85,NE,42,12.0,14.0,67,0.00,,,0.00,0,Wunderground v.1.15,2013-10-28 03:19:00,
2013-10-27 22:24:00,47.7,37.7,29.86,NE,34,7.0,12.0,68,0.00,,,0.00,0,Wunderground v.1.15,2013-10-28 03:24:00,
2013-10-27 22:29:00,47.4,37.7,29.86,NNE,32,6.0,13.0,69,0.00,,,0.00,0,Wunderground v.1.15,2013-10-28 03:29:00,
2013-10-27 22:34:00,46.9,37.3,29.86,NE,48,6.0,15.0,69,0.00,,,0.00,0,Wunderground v.1.15,2013-10-28 03:34:00,
2013-10-27 22:39:00,46.6,37.3,29.86,NE,44,7.0,16.0,70,0.00,,,0.00,0,Wunderground v.1.15,2013-10-28 03:39:00,
2013-10-27 22:44:00,46.3,37.0,29.87,NE,52,8.0,15.0,70,0.00,,,0.00,0,Wunderground v.1.15,2013-10-28 03:44:00,
2013-10-27 22:49:00,46.0,37.1,29.87,NE,46,8.0,16.0,71,0.00,,,0.00,0,Wunderground v.1.15,2013-10-28 03:49:00,
2013-10-27 22:54:00,45.8,36.9,29.87,NE,46,12.0,13.0,71,0.00,,,0.00,0,Wunderground v.1.15,2013-10-28 03:54:00,
2013-10-27 22:59:00,45.6,36.7,29.87,NE,43,10.0,17.0,71,0.00,,,0.00,0,Wunderground v.1.15,2013-10-28 03:59:00,
2013-10-27 23:01:00,45.6,36.7,29.87,NNE,32,8.0,12.0,71,0.00,,,0.00,0,Wunderground v.1.15,2013-10-28 04:01:00,
2013-10-27 23:02:00,45.6,36.7,29.87,NE,41,9.0,13.0,71,0.00,,,0.00,0,Wunderground v.1.15,2013-10-28 04:02:00,
2013-10-27 23:07:00,45.5,36.6,29.87,NE,42,14.0,15.0,71,0.00,,,0.00,0,Wunderground v.1.15,2013-10-28 04:07:00,
2013-10-27 23:12:00,45.4,36.5,29.87,NE,34,9.0,16.0,71,0.00,,,0.00,0,Wunderground v.1.15,2013-10-28 04:12:00,
2013-10-27 23:17:00,45.2,36.4,29.87,NE,36,14.0,18.0,71,0.00,,,0.00,0,Wunderground v.1.15,2013-10-28 04:17:00,
2013-10-27 23:22:00,45.1,36.3,29.87,NE,40,12.0,15.0,71,0.00,,,0.00,0,Wunderground v.1.15,2013-10-28 04:22:00,
2013-10-27 23:27:00,44.9,36.1,29.88,NE,41,15.0,17.0,71,0.00,,,0.00,0,Wunderground v.1.15,2013-10-28 04:27:00,
2013-10-27 23:32:00,44.7,35.9,29.88,NE,42,12.0,14.0,71,0.00,,,0.00,0,Wunderground v.1.15,2013-10-28 04:32:00,
2013-10-27 23:37:00,44.5,35.7,29.88,NNE,22,13.0,19.0,71,0.00,,,0.00,0,Wunderground v.1.15,2013-10-28 04:37:00,
2013-10-27 23:42:00,44.3,35.8,29.88,NE,34,13.0,14.0,72,0.00,,,0.00,0,Wunderground v.1.15,2013-10-28 04:42:00,
2013-10-27 23:47:00,44.0,35.6,29.88,NNE,17,5.0,17.0,72,0.00,,,0.00,0,Wunderground v.1.15,2013-10-28 04:47:00,
2013-10-27 23:52:00,43.7,35.6,29.89,NNE,18,5.0,11.0,73,0.00,,,0.00,0,Wunderground v.1.15,2013-10-28 04:52:00,
2013-10-27 23:57:00,43.5,35.4,29.90,NNE,24,7.0,16.0,73,0.00,,,0.00,0,Wunderground v.1.15,2013-10-28 04:57:00,